N452DA KDTW-KWAL

Flight info

Callsign N452DA
Flight time 1h 27m
Altitude 41000
Route LIDDS4 GRIVY LEPEW Q178 AVERE J152 JST J211 EMI Q119 DUALY SYFER
Aircraft LJ35/M-SGHRWXY/SB1

Departure

Time 2026-05-06 02:43
Airport Detroit Metropolitan Wayne County Airport (KDTW)

Arrival

Time 2026-05-06 04:10
Airport Wallops Flight Facility Airport (KWAL)
Time Latitude Longitude Altitude Speed Heading
2026-05-06 02:06 42.21161 -83.33103 643 ft 0 kts 311°
2026-05-06 02:34 42.21161 -83.33104 643 ft 2 kts 311°
2026-05-06 02:35 42.21177 -83.33142 643 ft 7 kts 282°
2026-05-06 02:35 42.21170 -83.33215 643 ft 9 kts 252°
2026-05-06 02:35 42.21163 -83.33311 643 ft 12 kts 288°
2026-05-06 02:35 42.21216 -83.33387 643 ft 12 kts 309°
2026-05-06 02:36 42.21258 -83.33492 643 ft 14 kts 295°
2026-05-06 02:36 42.21291 -83.33595 643 ft 7 kts 294°
2026-05-06 02:36 42.21321 -83.33638 644 ft 7 kts
2026-05-06 02:36 42.21372 -83.33611 644 ft 9 kts 12°
2026-05-06 02:37 42.21422 -83.33658 644 ft 9 kts 310°
2026-05-06 02:37 42.21426 -83.33665 644 ft 0 kts 310°
2026-05-06 02:37 42.21436 -83.33681 644 ft 8 kts 310°
2026-05-06 02:38 42.21494 -83.33772 643 ft 16 kts 314°
2026-05-06 02:38 42.21569 -83.33877 643 ft 13 kts 313°
2026-05-06 02:38 42.21644 -83.33897 643 ft 13 kts 25°
2026-05-06 02:38 42.21734 -83.33835 641 ft 16 kts 28°
2026-05-06 02:39 42.21823 -83.33811 642 ft 13 kts 318°
2026-05-06 02:39 42.21846 -83.33928 643 ft 14 kts 270°
2026-05-06 02:39 42.21845 -83.34059 643 ft 14 kts 269°
2026-05-06 02:39 42.21864 -83.34152 643 ft 9 kts 351°
2026-05-06 02:40 42.21928 -83.34116 643 ft 11 kts 31°
2026-05-06 02:40 42.22004 -83.34056 643 ft 14 kts 30°
2026-05-06 02:40 42.22096 -83.33987 643 ft 16 kts 28°
2026-05-06 02:40 42.22202 -83.33908 643 ft 18 kts 29°
2026-05-06 02:41 42.22322 -83.33822 644 ft 20 kts 28°
2026-05-06 02:41 42.22440 -83.33734 644 ft 19 kts 29°
2026-05-06 02:41 42.22551 -83.33652 644 ft 16 kts 28°
2026-05-06 02:41 42.22642 -83.33585 644 ft 14 kts 29°
2026-05-06 02:42 42.22717 -83.33530 643 ft 9 kts 28°
2026-05-06 02:42 42.22779 -83.33529 643 ft 11 kts 308°
2026-05-06 02:42 42.22801 -83.33625 643 ft 12 kts 245°
2026-05-06 02:42 42.22758 -83.33667 644 ft 0 kts 211°
2026-05-06 02:43 42.22677 -83.33728 645 ft 57 kts 209°
2026-05-06 02:43 42.21921 -83.34288 752 ft 183 kts 210°
2026-05-06 02:43 42.20597 -83.35270 1623 ft 243 kts 212°
2026-05-06 02:43 42.19053 -83.36323 3200 ft 256 kts 205°
2026-05-06 02:44 42.17362 -83.36661 4438 ft 243 kts 178°
2026-05-06 02:44 42.15669 -83.36230 4734 ft 251 kts 168°
2026-05-06 02:44 42.13959 -83.35870 5182 ft 247 kts 178°
2026-05-06 02:44 42.12226 -83.35810 5624 ft 244 kts 184°
2026-05-06 02:45 42.10553 -83.35796 6042 ft 243 kts 183°
2026-05-06 02:45 42.08862 -83.35716 6692 ft 242 kts 182°
2026-05-06 02:45 42.07202 -83.35622 7716 ft 235 kts 183°
2026-05-06 02:45 42.05551 -83.35366 8758 ft 254 kts 168°
2026-05-06 02:46 42.03983 -83.33969 9883 ft 289 kts 135°
2026-05-06 02:46 42.03062 -83.31522 11323 ft 306 kts 111°
2026-05-06 02:46 42.02623 -83.28660 12608 ft 319 kts 103°
2026-05-06 02:46 42.02301 -83.25664 13906 ft 328 kts 103°
2026-05-06 02:47 42.01894 -83.22629 15084 ft 333 kts 107°
2026-05-06 02:47 42.01448 -83.19532 16281 ft 343 kts 101°
2026-05-06 02:47 42.01617 -83.16258 17449 ft 359 kts 83°
2026-05-06 02:47 42.02087 -83.12918 18465 ft 369 kts 83°
2026-05-06 02:48 42.02571 -83.09490 19463 ft 376 kts 83°
2026-05-06 02:48 42.03045 -83.05998 20489 ft 383 kts 83°
2026-05-06 02:48 42.03513 -83.02442 21520 ft 390 kts 83°
2026-05-06 02:48 42.03996 -82.98819 22546 ft 397 kts 82°
2026-05-06 02:49 42.04494 -82.95126 23554 ft 405 kts 82°
2026-05-06 02:49 42.04997 -82.91369 24407 ft 412 kts 82°
2026-05-06 02:49 42.05505 -82.87537 25276 ft 420 kts 81°
2026-05-06 02:49 42.06030 -82.83579 26057 ft 431 kts 81°
2026-05-06 02:50 42.06550 -82.79652 27021 ft 434 kts 81°
2026-05-06 02:50 42.07041 -82.75607 27841 ft 442 kts 85°
2026-05-06 02:50 42.06930 -82.71462 28695 ft 445 kts 102°
2026-05-06 02:50 42.06240 -82.67389 29526 ft 449 kts 109°
2026-05-06 02:51 42.05443 -82.63241 30270 ft 457 kts 109°
2026-05-06 02:51 42.04656 -82.59104 30881 ft 466 kts 108°
2026-05-06 02:51 42.03874 -82.54835 31511 ft 474 kts 107°
2026-05-06 02:51 42.03062 -82.50435 32114 ft 482 kts 108°
2026-05-06 02:52 42.02242 -82.46032 32694 ft 490 kts 107°
2026-05-06 02:52 42.01438 -82.41608 33250 ft 497 kts 107°
2026-05-06 02:52 42.00606 -82.36998 33798 ft 505 kts 106°
2026-05-06 02:52 41.99758 -82.32384 34279 ft 511 kts 106°
2026-05-06 02:53 41.98900 -82.27759 34982 ft 509 kts 106°
2026-05-06 02:53 41.98059 -82.23198 35612 ft 510 kts 105°
2026-05-06 02:53 41.97207 -82.18570 36229 ft 511 kts 105°
2026-05-06 02:53 41.96266 -82.13990 36827 ft 511 kts 113°
2026-05-06 02:54 41.94707 -82.09726 37444 ft 504 kts 128°
2026-05-06 02:54 41.92596 -82.06041 38031 ft 493 kts 141°
2026-05-06 02:54 41.90068 -82.03036 38599 ft 481 kts 151°
2026-05-06 02:54 41.87436 -82.00286 39145 ft 478 kts 152°
2026-05-06 02:55 41.84817 -81.97549 39746 ft 475 kts 151°
2026-05-06 02:55 41.82200 -81.94794 40363 ft 471 kts 151°
2026-05-06 02:55 41.79655 -81.92117 40874 ft 471 kts 151°
2026-05-06 02:55 41.77034 -81.89388 40878 ft 483 kts 151°
2026-05-06 02:56 41.74385 -81.86631 40882 ft 495 kts 150°
2026-05-06 02:56 41.68791 -81.80884 40871 ft 509 kts 153°
2026-05-06 02:57 41.63092 -81.75274 40886 ft 516 kts 151°
2026-05-06 02:57 41.57308 -81.69605 40885 ft 515 kts 153°
2026-05-06 02:58 41.51549 -81.64003 40874 ft 515 kts 152°
2026-05-06 02:58 41.45770 -81.58357 40863 ft 514 kts 152°
2026-05-06 02:59 41.40919 -81.53661 40872 ft 515 kts 152°
2026-05-06 02:59 41.34190 -81.47121 40870 ft 515 kts 152°
2026-05-06 03:00 41.29396 -81.42493 40870 ft 515 kts 152°
2026-05-06 03:00 41.23645 -81.36936 40834 ft 515 kts 152°
2026-05-06 03:01 41.17844 -81.31346 40876 ft 514 kts 152°
2026-05-06 03:01 41.12109 -81.25836 40880 ft 514 kts 152°
2026-05-06 03:02 41.06088 -81.21236 40872 ft 490 kts 171°
2026-05-06 03:02 40.99603 -81.18885 40854 ft 482 kts 176°
2026-05-06 03:03 40.93114 -81.16586 40861 ft 484 kts 175°
2026-05-06 03:03 40.89913 -81.15043 40852 ft 501 kts 162°
2026-05-06 03:03 40.86948 -81.12503 40844 ft 518 kts 148°
2026-05-06 03:03 40.84419 -81.09027 40842 ft 532 kts 132°
2026-05-06 03:04 40.82359 -81.04940 40839 ft 536 kts 127°
2026-05-06 03:04 40.78369 -80.96671 40833 ft 536 kts 128°
2026-05-06 03:05 40.74287 -80.88435 40811 ft 536 kts 127°
2026-05-06 03:05 40.70249 -80.80176 40816 ft 536 kts 127°
2026-05-06 03:06 40.66170 -80.71942 40814 ft 536 kts 127°
2026-05-06 03:06 40.62101 -80.63700 40818 ft 537 kts 127°
2026-05-06 03:07 40.58018 -80.55482 40842 ft 537 kts 127°
2026-05-06 03:07 40.53931 -80.47259 40838 ft 536 kts 127°
2026-05-06 03:08 40.49845 -80.39070 40850 ft 535 kts 127°
2026-05-06 03:08 40.45754 -80.30888 40858 ft 536 kts 127°
2026-05-06 03:09 40.41656 -80.22716 40852 ft 536 kts 127°
2026-05-06 03:09 40.37552 -80.14554 40851 ft 536 kts 127°
2026-05-06 03:10 40.34013 -80.05954 40837 ft 542 kts 109°
2026-05-06 03:10 40.33189 -80.01144 40844 ft 541 kts 96°
2026-05-06 03:10 40.33019 -79.96228 40852 ft 539 kts 88°
2026-05-06 03:11 40.32980 -79.86391 40856 ft 540 kts 88°
2026-05-06 03:11 40.32875 -79.76622 40860 ft 540 kts 88°
2026-05-06 03:12 40.32796 -79.66858 40872 ft 539 kts 88°
2026-05-06 03:12 40.32691 -79.57049 40879 ft 538 kts 88°
2026-05-06 03:13 40.32578 -79.47233 40884 ft 538 kts 88°
2026-05-06 03:13 40.32465 -79.37425 40877 ft 538 kts 88°
2026-05-06 03:14 40.32341 -79.27621 40878 ft 538 kts 88°
2026-05-06 03:14 40.32205 -79.17816 40872 ft 538 kts 88°
2026-05-06 03:15 40.32065 -79.08011 40876 ft 538 kts 88°
2026-05-06 03:15 40.31915 -78.98208 40880 ft 537 kts 88°
2026-05-06 03:16 40.31542 -78.88440 40876 ft 539 kts 99°
2026-05-06 03:16 40.30532 -78.83724 40876 ft 539 kts 112°
2026-05-06 03:16 40.28850 -78.79358 40876 ft 535 kts 126°
2026-05-06 03:17 40.24223 -78.71814 40872 ft 530 kts 135°
2026-05-06 03:17 40.19446 -78.64446 40877 ft 531 kts 134°
2026-05-06 03:18 40.14678 -78.57057 40885 ft 531 kts 134°
2026-05-06 03:18 40.09907 -78.49721 40888 ft 532 kts 134°
2026-05-06 03:19 40.05146 -78.42384 40869 ft 532 kts 135°
2026-05-06 03:19 40.00351 -78.35035 40860 ft 531 kts 134°
2026-05-06 03:20 39.93169 -78.24042 40856 ft 531 kts 134°
2026-05-06 03:20 39.88363 -78.16714 40856 ft 531 kts 134°
2026-05-06 03:21 39.83820 -78.09122 40851 ft 537 kts 121°
2026-05-06 03:21 39.80921 -78.00161 40859 ft 539 kts 111°
2026-05-06 03:22 39.78201 -77.91091 40869 ft 538 kts 112°
2026-05-06 03:22 39.75446 -77.82045 40873 ft 538 kts 111°
2026-05-06 03:23 39.72705 -77.72988 40886 ft 538 kts 112°
2026-05-06 03:23 39.69942 -77.63956 40886 ft 538 kts 112°
2026-05-06 03:24 39.67188 -77.54934 40880 ft 537 kts 112°
2026-05-06 03:24 39.64422 -77.45942 40885 ft 536 kts 112°
2026-05-06 03:25 39.61660 -77.36974 40907 ft 535 kts 112°
2026-05-06 03:25 39.58894 -77.28027 40911 ft 535 kts 112°
2026-05-06 03:26 39.56124 -77.19098 40898 ft 520 kts 111°
2026-05-06 03:26 39.54797 -77.14826 40592 ft 504 kts 111°
2026-05-06 03:26 39.53480 -77.10596 40012 ft 498 kts 111°
2026-05-06 03:27 39.52079 -77.06576 39401 ft 493 kts 121°
2026-05-06 03:27 39.50063 -77.02969 38836 ft 485 kts 135°
2026-05-06 03:27 39.47602 -77.00061 38232 ft 474 kts 149°
2026-05-06 03:27 39.44822 -76.97903 37594 ft 460 kts 162°
2026-05-06 03:28 39.41865 -76.96524 36976 ft 445 kts 174°
2026-05-06 03:28 39.38899 -76.95849 36396 ft 437 kts 181°
2026-05-06 03:28 39.35875 -76.95311 35842 ft 443 kts 181°
2026-05-06 03:28 39.32766 -76.94742 35296 ft 459 kts 180°
2026-05-06 03:29 39.29559 -76.94129 34785 ft 472 kts 179°
2026-05-06 03:29 39.26281 -76.93503 34334 ft 480 kts 179°
2026-05-06 03:29 39.22962 -76.92883 33913 ft 485 kts 179°
2026-05-06 03:29 39.19724 -76.92287 33442 ft 488 kts 179°
2026-05-06 03:30 39.16357 -76.91658 32963 ft 489 kts 178°
2026-05-06 03:30 39.12991 -76.91025 32455 ft 489 kts 178°
2026-05-06 03:30 39.09624 -76.90398 31946 ft 488 kts 178°
2026-05-06 03:30 39.06279 -76.89779 31407 ft 484 kts 178°
2026-05-06 03:31 39.02991 -76.89166 30910 ft 472 kts 177°
2026-05-06 03:31 38.99791 -76.88569 30416 ft 463 kts 177°
2026-05-06 03:31 38.96636 -76.87987 29914 ft 454 kts 177°
2026-05-06 03:31 38.93530 -76.87414 29327 ft 447 kts 177°
2026-05-06 03:32 38.90488 -76.86851 28762 ft 441 kts 177°
2026-05-06 03:32 38.87477 -76.86301 28203 ft 435 kts 178°
2026-05-06 03:32 38.84492 -76.85753 27655 ft 431 kts 177°
2026-05-06 03:32 38.81602 -76.85208 27105 ft 427 kts 177°
2026-05-06 03:33 38.78685 -76.84657 26630 ft 423 kts 176°
2026-05-06 03:33 38.75849 -76.83542 26135 ft 430 kts 161°
2026-05-06 03:33 38.73333 -76.81671 25679 ft 432 kts 152°
2026-05-06 03:33 38.70829 -76.79553 25226 ft 430 kts 151°
2026-05-06 03:34 38.68351 -76.77450 24785 ft 427 kts 152°
2026-05-06 03:34 38.65869 -76.75388 24357 ft 424 kts 152°
2026-05-06 03:34 38.63400 -76.73351 23924 ft 422 kts 152°
2026-05-06 03:34 38.60947 -76.71306 23490 ft 420 kts 152°
2026-05-06 03:35 38.58528 -76.69282 22967 ft 417 kts 152°
2026-05-06 03:35 38.56100 -76.67265 22494 ft 415 kts 152°
2026-05-06 03:35 38.53690 -76.65271 22060 ft 411 kts 152°
2026-05-06 03:35 38.51296 -76.63284 21626 ft 409 kts 152°
2026-05-06 03:36 38.48925 -76.61312 21200 ft 406 kts 152°
2026-05-06 03:36 38.46564 -76.59356 20779 ft 403 kts 152°
2026-05-06 03:36 38.44221 -76.57411 20365 ft 401 kts 151°
2026-05-06 03:36 38.42120 -76.55027 19931 ft 409 kts 135°
2026-05-06 03:37 38.40538 -76.51994 19514 ft 413 kts 123°
2026-05-06 03:37 38.39165 -76.48789 19110 ft 411 kts 122°
2026-05-06 03:37 38.37810 -76.45614 18720 ft 406 kts 123°
2026-05-06 03:37 38.36446 -76.42489 18336 ft 399 kts 124°
2026-05-06 03:38 38.35094 -76.39423 17893 ft 394 kts 124°
2026-05-06 03:38 38.33769 -76.36391 17445 ft 389 kts 123°
2026-05-06 03:38 38.32466 -76.33393 17004 ft 386 kts 123°
2026-05-06 03:38 38.31167 -76.30423 16555 ft 382 kts 123°
2026-05-06 03:39 38.29874 -76.27477 16127 ft 380 kts 123°
2026-05-06 03:39 38.28594 -76.24553 15698 ft 377 kts 123°
2026-05-06 03:39 38.27316 -76.21640 15289 ft 375 kts 123°
2026-05-06 03:39 38.26048 -76.18750 14882 ft 373 kts 123°
2026-05-06 03:40 38.24784 -76.15876 14479 ft 372 kts 123°
2026-05-06 03:40 38.23527 -76.13019 14071 ft 367 kts 123°
2026-05-06 03:40 38.22294 -76.10213 13662 ft 361 kts 123°
2026-05-06 03:40 38.21102 -76.07502 13225 ft 355 kts 123°
2026-05-06 03:41 38.19877 -76.04727 12787 ft 351 kts 123°
2026-05-06 03:41 38.18696 -76.02050 12395 ft 342 kts 124°
2026-05-06 03:41 38.17578 -75.99509 12036 ft 324 kts 124°
2026-05-06 03:41 38.16504 -75.97075 11659 ft 308 kts 124°
2026-05-06 03:42 38.15477 -75.94761 11289 ft 297 kts 125°
2026-05-06 03:42 38.14480 -75.92510 10983 ft 287 kts 125°
2026-05-06 03:42 38.13509 -75.90321 10681 ft 281 kts 126°
2026-05-06 03:42 38.12558 -75.88177 10382 ft 276 kts 126°
2026-05-06 03:43 38.11621 -75.86066 10088 ft 273 kts 126°
2026-05-06 03:43 38.10681 -75.83956 9802 ft 277 kts 126°
2026-05-06 03:43 38.09723 -75.81804 9550 ft 282 kts 126°
2026-05-06 03:43 38.08755 -75.79625 9293 ft 285 kts 126°
2026-05-06 03:44 38.08098 -75.78145 9111 ft 286 kts 126°
2026-05-06 03:44 38.06795 -75.75217 8778 ft 289 kts 126°
2026-05-06 03:44 38.06140 -75.73747 8617 ft 290 kts 126°
2026-05-06 03:44 38.05147 -75.71517 8370 ft 290 kts 126°
2026-05-06 03:45 38.04151 -75.69283 8125 ft 291 kts 126°
2026-05-06 03:45 38.03155 -75.67050 7884 ft 292 kts 126°
2026-05-06 03:45 38.02154 -75.64808 7640 ft 292 kts 126°
2026-05-06 03:45 38.01151 -75.62564 7396 ft 292 kts 126°
2026-05-06 03:46 38.00149 -75.60322 7146 ft 292 kts 126°
2026-05-06 03:46 37.99155 -75.58097 6911 ft 287 kts 126°
2026-05-06 03:46 37.98186 -75.55927 6672 ft 280 kts 126°
2026-05-06 03:46 37.97231 -75.53797 6430 ft 275 kts 126°
2026-05-06 03:47 37.96290 -75.51704 6191 ft 272 kts 126°
2026-05-06 03:47 37.95358 -75.49625 5880 ft 270 kts 126°
2026-05-06 03:47 37.94448 -75.47557 5579 ft 269 kts 122°
2026-05-06 03:47 37.94012 -75.45221 5255 ft 280 kts 97°
2026-05-06 03:48 37.94026 -75.42756 4962 ft 279 kts 94°
2026-05-06 03:48 37.94058 -75.40330 4654 ft 272 kts 94°
2026-05-06 03:48 37.94072 -75.37927 4347 ft 266 kts 95°
2026-05-06 03:48 37.94078 -75.35602 4045 ft 262 kts 95°
2026-05-06 03:49 37.94089 -75.33335 3749 ft 260 kts 96°
2026-05-06 03:49 37.94099 -75.31052 3447 ft 259 kts 95°
2026-05-06 03:49 37.94109 -75.28784 3153 ft 257 kts 96°
2026-05-06 03:49 37.94121 -75.26531 2851 ft 255 kts 97°
2026-05-06 03:50 37.94130 -75.24288 2552 ft 254 kts 97°
2026-05-06 03:50 37.94146 -75.22043 2248 ft 257 kts 95°
2026-05-06 03:50 37.94637 -75.19835 2011 ft 265 kts 65°
2026-05-06 03:50 37.95764 -75.18032 2005 ft 258 kts 47°
2026-05-06 03:51 37.97007 -75.16458 2007 ft 247 kts 46°
2026-05-06 03:51 37.98196 -75.14938 2005 ft 241 kts 47°
2026-05-06 03:51 37.99367 -75.13417 1999 ft 242 kts 48°
2026-05-06 03:51 38.00546 -75.11887 2001 ft 243 kts 47°
2026-05-06 03:52 38.01735 -75.10327 2000 ft 248 kts 51°
2026-05-06 03:52 38.02543 -75.08428 1999 ft 244 kts 79°
2026-05-06 03:52 38.02715 -75.06333 2003 ft 235 kts 104°
2026-05-06 03:52 38.02292 -75.04395 2008 ft 224 kts 127°
2026-05-06 03:53 38.01403 -75.02840 2013 ft 213 kts 146°
2026-05-06 03:53 38.00221 -75.01806 2018 ft 202 kts 163°
2026-05-06 03:53 37.98914 -75.01327 2024 ft 191 kts 179°
2026-05-06 03:53 37.97612 -75.01369 2028 ft 185 kts 194°
2026-05-06 03:54 37.96412 -75.01875 2036 ft 180 kts 208°
2026-05-06 03:54 37.95399 -75.02771 2037 ft 177 kts 221°
2026-05-06 03:54 37.94630 -75.03978 2037 ft 177 kts 234°
2026-05-06 03:54 37.94152 -75.05420 2030 ft 180 kts 248°
2026-05-06 03:55 37.94011 -75.07016 2024 ft 185 kts 263°
2026-05-06 03:55 37.94042 -75.08640 2019 ft 183 kts 262°
2026-05-06 03:55 37.94050 -75.10241 2013 ft 181 kts 262°
2026-05-06 03:55 37.94062 -75.11820 2010 ft 175 kts 262°
2026-05-06 03:56 37.94075 -75.13333 2002 ft 170 kts 261°
2026-05-06 03:56 37.94085 -75.14816 2005 ft 168 kts 261°
2026-05-06 03:56 37.94094 -75.16293 2002 ft 168 kts 261°
2026-05-06 03:56 37.94104 -75.17773 2002 ft 168 kts 261°
2026-05-06 03:57 37.94115 -75.19261 2002 ft 170 kts 261°
2026-05-06 03:57 37.94125 -75.20759 2001 ft 171 kts 261°
2026-05-06 03:57 37.94136 -75.22271 1958 ft 173 kts 261°
2026-05-06 03:57 37.94147 -75.23801 1927 ft 174 kts 261°
2026-05-06 03:58 37.94159 -75.25324 1927 ft 172 kts 261°
2026-05-06 03:58 37.94170 -75.26831 1925 ft 170 kts 261°
2026-05-06 03:58 37.94180 -75.28329 1925 ft 169 kts 261°
2026-05-06 03:58 37.94189 -75.29817 1927 ft 170 kts 261°
2026-05-06 03:59 37.94198 -75.31315 1928 ft 171 kts 261°
2026-05-06 03:59 37.94206 -75.32824 1927 ft 172 kts 261°
2026-05-06 03:59 37.94216 -75.34341 1763 ft 169 kts 261°
2026-05-06 03:59 37.94232 -75.35783 1543 ft 155 kts 259°
2026-05-06 04:00 37.94249 -75.37038 1332 ft 130 kts 257°
2026-05-06 04:00 37.94253 -75.38129 1159 ft 120 kts 256°
2026-05-06 04:00 37.94253 -75.39175 1006 ft 115 kts 256°
2026-05-06 04:00 37.94256 -75.40153 865 ft 111 kts 256°
2026-05-06 04:01 37.94252 -75.41214 731 ft 126 kts 261°
2026-05-06 04:01 37.94259 -75.42317 582 ft 124 kts 262°
2026-05-06 04:01 37.94274 -75.43373 467 ft 118 kts 261°
2026-05-06 04:01 37.94284 -75.44415 302 ft 117 kts 259°
2026-05-06 04:02 37.94263 -75.45436 161 ft 128 kts 268°
2026-05-06 04:02 37.94484 -75.46797 422 ft 176 kts 265°
2026-05-06 04:02 37.94480 -75.48334 900 ft 170 kts 258°
2026-05-06 04:02 37.94384 -75.49817 1436 ft 170 kts 256°
2026-05-06 04:03 37.94573 -75.51344 1859 ft 183 kts 284°
2026-05-06 04:03 37.95333 -75.52709 2255 ft 188 kts 297°
2026-05-06 04:03 37.96138 -75.54009 2628 ft 188 kts 299°
2026-05-06 04:03 37.97023 -75.55261 2865 ft 196 kts 308°
2026-05-06 04:04 37.98291 -75.56104 2839 ft 223 kts 340°
2026-05-06 04:04 37.99906 -75.56028 2722 ft 246 kts 15°
2026-05-06 04:04 38.01368 -75.54904 2735 ft 242 kts 36°
2026-05-06 04:04 38.02632 -75.53615 2774 ft 232 kts 39°
2026-05-06 04:05 38.03882 -75.52266 2590 ft 233 kts 41°
2026-05-06 04:05 38.05089 -75.50882 2419 ft 234 kts 42°
2026-05-06 04:05 38.06129 -75.49391 2416 ft 225 kts 59°
2026-05-06 04:05 38.06738 -75.47636 2289 ft 212 kts 86°
2026-05-06 04:06 38.06645 -75.45889 2154 ft 189 kts 121°
2026-05-06 04:06 38.06023 -75.44477 1988 ft 178 kts 137°
2026-05-06 04:06 38.05313 -75.43245 1981 ft 166 kts 144°
2026-05-06 04:06 38.04518 -75.42322 1980 ft 147 kts 157°
2026-05-06 04:07 38.03692 -75.41671 1979 ft 134 kts 163°
2026-05-06 04:07 38.02851 -75.41098 1938 ft 140 kts 164°
2026-05-06 04:07 38.02000 -75.40489 1931 ft 140 kts 168°
2026-05-06 04:07 38.01100 -75.40278 1922 ft 126 kts 198°
2026-05-06 04:08 38.00382 -75.40902 1725 ft 125 kts 223°
2026-05-06 04:08 37.99736 -75.41548 1389 ft 113 kts 217°
2026-05-06 04:08 37.99081 -75.42045 1064 ft 107 kts 205°
2026-05-06 04:08 37.98451 -75.42513 954 ft 105 kts 212°
2026-05-06 04:09 37.97813 -75.43031 770 ft 115 kts 211°
2026-05-06 04:09 37.97096 -75.43600 642 ft 128 kts 208°
2026-05-06 04:09 37.96358 -75.44178 562 ft 114 kts 211°
2026-05-06 04:09 37.95710 -75.44701 319 ft 117 kts 210°
2026-05-06 04:10 37.95012 -75.45264 214 ft 115 kts 208°
2026-05-06 04:10 37.94372 -75.45774 57 ft 100 kts 208°
2026-05-06 04:10 37.93912 -75.46136 48 ft 40 kts 213°
2026-05-06 04:10 37.93819 -75.46212 48 ft 14 kts 212°
2026-05-06 04:11 37.93750 -75.46270 47 ft 10 kts 218°
2026-05-06 04:11 37.93701 -75.46335 47 ft 10 kts 238°
2026-05-06 04:11 37.93671 -75.46426 48 ft 10 kts 249°
2026-05-06 04:11 37.93654 -75.46480 48 ft 9 kts 248°
2026-05-06 04:12 37.93612 -75.46562 47 ft 15 kts 233°
2026-05-06 04:12 37.93546 -75.46635 46 ft 14 kts 212°
2026-05-06 04:12 37.93446 -75.46714 45 ft 19 kts 214°
2026-05-06 04:12 37.93348 -75.46794 44 ft 13 kts 211°
2026-05-06 04:13 37.93271 -75.46856 43 ft 11 kts 220°
2026-05-06 04:13 37.93282 -75.46969 43 ft 15 kts 277°
2026-05-06 04:13 37.93275 -75.47095 43 ft 7 kts 296°
2026-05-06 04:13 37.93279 -75.47103 43 ft 0 kts 299°